GFSFLT1_250_spd_057.txt.gz
Wind_Speed
33 34 33 37 43 45 46 46 53 57 56 53 56 61 71 69 67 68 72 75 75 72 72 72 74 75 73 70 67 68 67 67
35 34 30 34 35 43 46 48 52 53 53 54 56 54 59 61 62 59 63 66 69 68 69 68 68 68 67 67 67 68 70 74
33 31 32 33 35 35 37 39 42 50 52 52 54 52 53 56 60 61 64 64 63 64 65 65 65 66 68 68 71 74 77 79
40 37 35 33 32 33 40 40 41 43 47 49 53 57 59 61 61 59 59 59 60 63 64 65 68 68 68 71 74 77 80 82
41 40 37 39 44 44 41 42 43 45 51 55 56 58 58 54 54 55 55 58 62 65 67 70 70 71 74 76 75 78 78 78
38 42 46 46 47 41 41 44 45 47 49 51 51 50 49 49 50 52 56 62 66 69 70 70 70 72 76 80 79 79 80 83
42 43 42 42 43 42 43 44 44 42 39 41 43 46 47 49 53 57 61 66 69 72 73 73 72 75 77 79 79 81 86 90
40 38 37 36 39 42 38 36 33 33 34 39 45 48 50 53 56 59 62 64 64 66 69 73 73 72 73 76 80 86 88 92
35 34 37 38 36 33 26 30 31 34 38 46 50 52 55 56 60 61 61 64 66 68 71 73 73 75 77 83 88 89 92 95
39 37 36 34 33 31 28 31 34 41 48 53 54 54 57 58 59 61 64 66 70 72 74 72 74 78 84 86 91 93 96 101
34 35 34 34 32 29 31 36 44 50 51 52 52 55 56 58 61 64 68 69 74 73 75 78 79 82 87 92 96 100 103 104
33 32 32 30 30 31 36 41 45 48 48 50 52 54 57 60 63 67 70 73 70 74 77 82 86 90 95 99 103 106 106 104
35 34 34 30 33 36 40 42 45 46 50 52 56 56 61 63 65 68 68 71 75 78 81 85 90 95 100 102 108 106 105 110
36 34 30 33 37 39 43 44 47 50 53 56 60 64 66 67 67 68 72 75 80 83 87 92 97 100 102 107 106 106 110 109
29 28 31 36 38 37 44 46 52 56 58 62 65 65 67 67 70 75 80 84 88 89 93 97 100 102 106 107 106 110 112 115
26 30 34 38 41 43 48 51 54 58 61 64 66 67 67 71 77 82 86 89 92 95 99 101 103 107 110 107 111 116 118 118
33 35 38 43 45 47 51 56 59 62 64 66 68 69 73 77 83 87 91 92 95 98 101 104 106 112 109 112 118 120 118 117
38 41 43 46 48 52 56 59 61 63 67 70 72 75 79 83 88 92 93 95 99 102 105 108 112 111 113 119 121 119 118 118
42 44 47 50 53 55 57 60 63 67 71 74 77 80 84 88 93 92 96 100 102 106 110 113 111 114 120 122 120 118 118 118

GFSFLT1_250_spd_060.txt.gz
Wind_Speed
30 29 25 28 29 32 32 33 35 37 39 45 49 52 56 57 58 56 59 67 69 73 74 77 77 76 69 68 70 69 71 71
30 26 27 28 30 32 35 38 44 43 45 49 52 55 62 58 63 61 64 65 66 65 70 70 69 67 65 66 70 71 73 76
26 31 36 35 33 31 32 36 40 48 46 49 44 47 57 63 56 63 68 66 65 65 65 68 66 65 67 70 73 75 77 77
29 29 31 39 31 32 38 36 36 38 38 43 47 50 48 58 64 62 60 64 65 67 65 62 62 66 71 74 77 80 81 81
33 35 36 37 41 39 38 38 38 40 44 47 49 52 50 53 57 60 60 62 60 57 58 61 65 69 72 72 69 69 73 76
38 40 43 44 44 45 42 44 49 51 51 48 52 54 54 53 54 56 54 54 55 59 61 64 68 71 72 72 72 75 77 76
40 42 45 47 49 48 46 46 46 46 47 48 46 44 48 50 49 49 53 58 60 63 66 69 72 73 74 74 74 72 75 77
39 39 37 38 38 38 38 38 40 42 37 34 36 40 46 49 49 54 60 62 64 67 70 70 73 74 75 75 75 75 79 82
40 39 34 36 37 38 38 41 38 34 31 33 39 42 51 53 57 62 66 64 66 68 70 72 69 69 72 77 81 83 84 86
36 38 38 37 39 41 39 35 31 30 33 39 44 49 52 57 63 63 63 63 67 70 68 67 69 72 75 80 84 86 88 92
38 40 42 42 40 36 35 36 31 34 40 43 47 53 57 59 61 62 64 67 69 67 66 70 74 79 84 86 87 90 93 97
40 38 36 35 34 36 36 35 33 37 42 45 50 54 54 58 61 64 67 67 69 68 69 74 79 83 85 86 91 96 99 103
35 36 36 34 34 35 35 35 34 40 45 50 53 54 57 60 62 64 67 70 74 74 77 81 85 85 88 92 96 100 103 106
37 37 35 33 32 32 30 31 35 39 47 51 51 56 61 63 64 68 71 74 76 78 82 84 88 89 94 97 101 105 107 110
36 36 32 30 30 29 32 36 41 44 48 52 56 60 63 68 70 74 75 77 80 81 86 87 90 95 99 103 105 107 110 110
38 32 29 29 29 32 36 41 46 50 51 56 59 62 67 73 77 78 80 81 83 86 87 92 96 101 104 105 107 111 110 114
34 32 28 30 33 37 41 46 50 53 57 59 63 67 71 74 77 80 82 83 85 88 94 97 102 104 107 108 111 109 113 118
33 33 34 36 39 43 47 50 54 58 61 64 68 72 73 76 79 80 82 86 89 94 97 101 104 108 110 111 111 113 118 121
35 37 40 43 45 48 51 54 58 61 64 67 69 71 75 77 79 82 86 90 95 97 101 104 107 111 110 111 115 117 119 121

GFSFLT1_250_spd_063.txt.gz
Wind_Speed
31 26 23 25 30 27 23 26 30 33 35 46 48 39 43 47 49 52 55 57 62 65 68 72 72 76 76 77 78 78 72 69
22 31 28 24 22 20 22 25 28 30 32 35 37 40 40 44 52 54 60 63 63 68 68 69 74 72 65 69 68 72 65 67
28 26 29 32 27 27 28 29 30 33 34 41 40 48 50 47 44 45 46 51 54 61 66 69 67 67 67 67 66 66 67 69
23 24 23 21 27 30 32 31 31 36 38 42 43 43 46 46 47 49 52 56 59 60 58 60 63 64 65 64 65 68 70 73
27 31 28 31 29 29 32 37 38 39 41 45 45 45 50 54 54 55 56 55 58 57 59 59 59 61 64 67 70 73 74 76
29 29 31 32 34 37 37 42 44 45 45 48 48 50 49 50 52 54 53 52 53 54 53 59 63 66 69 71 74 75 78 79
35 36 38 39 38 40 42 43 43 45 47 47 45 44 42 45 48 46 45 48 52 55 60 66 70 72 73 73 75 77 75 73
30 32 36 38 38 35 34 35 38 39 40 41 43 43 39 39 42 43 47 52 56 60 66 70 71 72 75 76 76 74 73 76
28 28 29 31 33 34 34 33 35 39 40 42 42 40 37 39 43 47 55 58 60 66 69 71 75 74 77 76 74 73 80 84
25 29 31 32 34 36 38 38 39 40 40 40 38 40 40 45 52 56 57 61 64 66 70 73 76 75 71 73 76 79 83 89
31 33 32 34 37 38 41 43 40 37 37 37 37 39 48 53 55 57 61 63 64 70 74 74 75 73 77 77 82 85 88 89
36 36 38 39 39 40 37 36 37 36 35 37 38 42 47 53 57 62 63 66 66 74 78 77 78 81 83 85 86 89 92 95
40 41 41 40 36 34 36 37 37 38 36 34 39 44 50 56 60 61 63 67 72 76 76 78 80 84 87 89 89 92 95 99
42 40 37 36 36 36 37 38 39 36 34 38 41 47 53 56 60 65 69 73 74 78 83 86 86 85 87 89 93 96 100 104
40 38 38 38 37 36 39 40 36 35 39 43 47 51 56 60 63 66 70 74 78 80 83 87 89 90 91 94 98 101 104 107
40 40 37 38 39 37 35 34 37 40 45 48 50 55 59 62 64 68 70 75 80 83 85 89 91 92 95 97 100 102 105 110
36 38 38 39 38 35 38 41 43 45 48 51 54 58 61 64 66 70 74 79 81 85 86 88 92 95 97 100 104 106 109 112
38 38 37 38 37 37 39 42 46 49 51 54 58 61 64 67 71 74 76 80 82 85 87 87 91 96 99 103 107 109 111 112
39 39 39 39 40 41 44 47 50 52 55 59 62 65 68 71 73 75 79 81 83 85 86 90 94 100 103 108 111 112 111 113

GFSFLT1_250_spd_066.txt.gz
Wind_Speed
26 22 26 26 32 34 33 37 40 38 39 46 49 51 58 61 59 50 47 53 54 57 56 57 61 65 69 69 67 69 71 69
26 26 24 24 20 24 29 34 32 39 33 41 44 37 42 50 47 50 49 47 49 53 56 54 54 54 56 59 61 61 60 62
32 34 27 25 24 26 26 24 27 25 27 29 32 34 37 41 45 45 50 50 54 51 55 56 56 59 63 62 62 62 62 66
27 31 27 26 31 30 32 33 32 30 31 32 34 37 39 43 47 48 49 53 54 57 60 60 61 64 62 63 61 61 68 70
27 30 28 26 30 27 26 30 31 33 36 36 38 41 45 48 50 52 54 57 58 59 58 60 62 61 60 58 59 65 72 74
31 29 32 34 35 37 38 36 36 38 42 42 44 45 49 50 51 53 54 55 55 57 58 56 57 56 58 62 66 72 75 78
34 33 34 36 37 38 39 40 42 42 44 46 46 44 43 46 48 49 52 55 54 52 50 53 57 60 64 67 71 74 78 81
35 40 40 41 41 41 42 41 41 38 39 38 38 42 42 45 47 48 49 50 49 48 50 58 64 67 69 72 73 75 81 83
34 34 36 37 38 38 38 37 36 38 38 41 41 42 44 49 49 45 47 45 47 51 58 63 68 72 74 77 77 80 84 83
35 36 39 39 37 35 36 36 36 37 41 44 45 46 44 39 43 47 51 55 59 61 65 70 70 74 76 77 80 83 87 84
28 31 32 33 35 36 36 36 38 41 43 44 44 44 44 43 45 52 51 57 62 65 68 71 71 75 77 79 81 84 84 86
32 33 33 33 35 37 39 41 42 42 40 40 41 42 46 47 46 50 55 59 62 65 69 71 75 77 83 87 87 85 84 89
37 37 38 38 40 41 42 40 39 39 41 41 43 45 46 47 49 53 58 60 64 68 72 76 79 81 85 89 90 90 92 94
36 37 37 38 38 38 39 40 40 41 44 45 47 47 45 46 51 54 58 62 67 68 73 79 84 85 84 88 91 96 98 99
34 35 35 36 38 42 43 44 43 43 46 46 47 49 50 51 54 57 61 62 72 72 75 81 84 87 89 89 93 96 99 100
36 38 40 40 41 42 44 43 46 47 45 45 47 48 50 53 56 61 64 68 72 76 79 81 84 87 90 92 95 98 100 102
38 40 42 44 43 42 41 34 35 43 45 46 48 49 54 58 61 65 69 72 75 77 79 82 86 90 91 95 97 99 101 104
39 41 41 42 44 43 42 42 41 44 46 50 53 56 59 63 66 69 71 73 75 79 82 86 88 91 94 96 98 101 103 105
42 43 43 42 45 46 46 46 46 47 49 52 55 58 62 64 68 70 72 75 79 82 85 86 90 93 95 98 102 103 103 109

GFSFLT1_250_spd_069.txt.gz
Wind_Speed
25 33 32 36 44 53 49 48 53 49 54 52 55 60 64 64 64 62 61 62 64 65 64 68 60 63 64 61 63 65 65 64
19 21 27 36 37 45 45 49 46 43 43 54 50 46 51 59 64 63 60 61 60 60 56 55 59 58 60 59 60 62 66 68
20 28 25 32 32 34 35 43 43 40 40 36 37 38 38 40 43 49 52 51 55 53 53 54 56 58 63 63 66 69 68 70
30 29 29 33 27 28 29 29 32 35 33 36 36 38 42 41 42 44 46 47 49 52 55 56 60 63 66 68 69 68 68 67
23 35 35 33 35 35 33 35 34 37 39 37 40 39 38 40 44 47 50 52 53 57 58 60 61 63 64 65 67 67 65 60
33 36 35 41 39 33 32 32 31 33 35 36 37 43 44 46 47 50 54 57 60 62 62 59 59 62 63 64 63 61 62 65
36 33 36 39 39 35 37 41 43 42 45 45 45 48 50 53 52 56 58 59 58 56 57 61 62 61 59 60 61 62 67 74
37 39 41 41 40 40 41 44 45 48 48 48 51 54 57 56 53 53 52 53 55 56 58 61 59 58 59 62 66 72 77 80
37 38 39 42 42 45 48 48 47 51 50 54 53 49 46 45 50 51 53 55 58 59 56 55 59 64 66 69 73 76 80 84
44 45 45 45 44 45 46 46 46 47 46 44 44 45 46 48 52 54 57 58 57 53 56 58 62 65 65 73 78 81 83 83
36 40 42 42 42 42 42 41 43 42 45 43 45 49 50 52 54 55 55 54 55 57 60 62 69 71 72 75 79 82 82 87
33 33 33 36 38 40 41 42 43 44 45 47 49 51 53 52 52 52 55 55 57 59 65 68 71 74 74 79 82 83 86 91
35 36 39 40 41 43 44 45 47 47 47 49 49 48 50 51 52 53 54 56 61 64 66 67 69 73 76 80 85 87 91 94
39 39 41 42 43 42 41 43 44 44 43 47 48 52 53 54 55 56 57 59 61 66 68 66 68 78 79 85 86 92 94 96
41 43 44 42 43 39 36 38 41 43 45 47 50 52 53 53 57 58 57 58 60 64 68 70 74 78 82 85 90 93 96 98
34 36 39 41 42 39 40 40 41 44 45 45 45 47 50 51 53 54 56 56 59 64 68 74 78 81 85 88 90 92 96 99
37 38 38 42 43 40 42 42 43 45 45 47 46 50 52 53 54 57 59 61 65 69 73 77 81 83 85 88 91 95 97 99
43 42 41 40 42 43 45 45 44 43 45 46 49 49 50 53 56 59 63 66 69 72 75 78 81 83 88 90 92 94 98 103
37 44 46 46 46 47 48 48 47 47 48 49 50 52 54 57 60 62 66 70 73 75 78 81 84 85 87 90 94 99 102 105

GFSFLT1_250_spd_072.txt.gz
Wind_Speed
34 42 49 49 47 50 51 50 50 53 54 60 60 59 55 55 59 63 62 58 57 61 62 63 66 69 69 69 68 67 66 68
24 28 36 47 50 50 48 47 48 50 53 50 50 57 57 58 57 54 59 60 63 66 69 69 68 66 70 67 64 63 64 64
24 27 29 33 39 45 47 51 50 53 52 49 55 52 54 58 57 53 55 59 61 56 56 58 61 60 62 65 65 65 67 70
21 22 24 28 34 37 40 48 53 55 52 55 54 51 45 48 48 47 45 46 48 52 54 53 55 56 61 63 64 67 70 72
20 19 22 23 24 30 33 41 46 54 53 47 51 50 46 47 49 48 45 46 49 53 55 58 60 59 60 66 70 71 71 67
23 29 29 32 33 30 35 34 38 36 40 39 41 47 47 45 44 46 50 54 57 57 59 61 62 64 69 73 70 67 69 71
27 31 33 37 40 41 41 43 39 37 38 42 44 44 47 48 50 51 57 60 59 57 61 63 67 70 72 66 67 70 73 70
39 34 36 35 39 40 41 42 48 44 46 47 50 52 52 54 56 58 60 63 65 65 68 68 64 64 65 68 71 70 70 70
45 43 46 49 48 45 42 44 47 49 49 50 51 54 57 59 58 59 61 60 62 61 60 62 63 65 69 68 66 64 73 75
47 52 49 50 49 49 50 53 53 53 54 55 57 57 55 54 55 53 51 55 58 61 62 65 67 67 65 62 67 70 80 78
32 37 43 50 52 51 53 52 52 52 53 53 51 51 51 49 50 46 47 57 60 62 64 65 65 66 67 63 64 64 72 85
36 38 37 37 37 37 42 43 43 46 48 50 51 50 50 49 51 53 60 60 61 62 61 63 65 67 69 73 75 79 87 93
38 38 37 37 43 44 42 46 45 45 49 52 54 54 50 51 51 55 57 58 62 64 65 66 66 66 72 76 80 83 85 88
29 40 43 43 42 43 46 46 49 46 38 40 44 45 48 50 55 58 60 64 66 66 66 65 66 66 69 73 78 82 83 87
25 27 33 39 41 43 46 48 45 41 37 40 40 40 47 54 58 58 56 56 57 57 60 59 61 64 67 69 72 78 84 88
34 30 28 35 34 39 41 43 43 40 41 41 41 43 49 54 52 52 54 55 56 56 57 60 62 66 69 74 79 84 87 89
34 32 29 33 35 42 46 45 45 42 40 40 45 50 51 54 56 56 56 56 56 58 60 62 65 68 72 76 79 83 86 90
35 35 32 29 31 34 40 46 48 49 51 52 54 55 57 57 59 60 60 61 62 64 65 67 69 71 76 80 83 86 91 94
41 39 38 38 37 38 38 39 41 46 51 53 54 57 59 61 63 65 66 68 68 70 73 75 77 78 82 86 89 91 93 98

GFSFLT1_250_spd_078.txt.gz
Wind_Speed
41 62 63 73 61 52 61 71 77 74 70 74 70 71 69 65 66 71 66 57 63 65 67 66 64 67 71 73 70 69 68 69
34 33 58 73 76 59 61 62 68 75 77 72 69 69 69 69 62 61 66 66 69 65 65 66 69 65 63 65 69 71 74 72
24 21 32 51 65 61 60 62 63 61 63 70 71 69 67 70 67 67 62 67 70 63 68 63 68 70 66 74 71 74 75 70
17 16 22 35 51 57 55 59 64 65 63 62 63 63 61 59 62 69 68 69 70 72 71 70 68 69 72 70 70 69 67 66
11 11 14 19 29 45 58 64 65 61 61 58 62 61 67 67 64 62 66 67 72 71 71 73 74 74 73 68 66 65 66 68
11 12 11 16 17 27 33 39 53 62 60 62 62 66 68 65 67 68 67 65 65 70 72 73 68 70 66 67 67 66 69 73
19 18 17 20 19 16 18 24 31 38 40 44 45 49 50 53 54 55 58 66 66 60 59 63 68 69 71 73 74 75 76 77
22 22 24 25 23 25 26 27 28 27 29 33 35 39 41 44 45 48 50 53 58 63 66 70 74 76 78 81 82 82 80 79
27 28 27 29 33 29 32 34 34 32 37 41 42 43 43 46 51 50 52 56 61 65 72 78 78 79 77 75 70 70 70 68
22 31 39 40 37 36 36 36 39 39 41 43 44 46 46 51 54 55 59 62 64 61 59 63 67 67 67 68 67 66 69 72
13 19 22 33 39 42 46 43 46 48 48 47 47 49 53 54 55 49 44 40 36 48 51 50 57 66 70 69 69 71 73 72
9 17 21 15 27 31 31 40 50 52 53 57 57 57 55 43 39 35 37 31 29 35 41 40 52 66 76 78 73 77 77 81
13 13 17 19 13 24 32 29 30 38 35 38 42 40 34 36 41 37 26 35 39 45 51 61 74 81 80 78 75 79 84 87
16 15 18 15 15 14 19 30 37 36 39 38 39 42 42 38 39 34 37 49 49 54 64 79 81 81 81 83 87 85 87 85
23 20 20 20 17 15 12 15 18 28 39 43 40 43 44 41 44 44 49 55 61 69 70 76 83 88 89 87 87 89 91 91
22 27 27 24 20 16 16 17 18 20 23 27 30 32 41 43 44 51 57 60 64 69 77 86 90 90 90 90 91 95 94 92
23 25 30 32 32 27 22 18 21 22 24 25 29 33 38 44 47 54 63 68 71 77 81 87 91 94 93 94 97 94 90 86
27 30 29 32 36 37 34 31 29 29 27 26 29 32 33 36 38 42 44 48 53 58 60 61 64 69 72 74 78 80 78 77
33 31 34 32 33 38 39 39 38 37 40 39 39 40 42 42 43 45 47 50 53 56 59 60 64 68 72 75 78 76 75 76

GFSFLT1_250_spd_081.txt.gz
Wind_Speed
62 61 55 56 63 57 60 61 61 57 57 63 61 65 58 62 62 62 57 57 58 64 63 65 66 61 63 66 70 66 63 62
67 58 57 62 60 65 60 63 64 61 59 58 70 64 67 61 61 61 64 69 71 73 77 70 73 74 70 64 64 65 67 72
55 66 58 72 73 61 68 56 61 65 65 63 66 74 74 72 70 72 70 67 68 71 72 70 67 67 68 66 66 69 68 70
37 49 60 60 67 84 77 73 65 63 69 70 72 75 77 76 73 70 67 71 74 71 63 68 67 65 63 67 68 70 67 72
27 28 34 37 43 59 88 80 73 74 65 65 74 80 76 76 73 78 79 73 71 73 73 66 67 70 75 73 70 72 69 67
18 18 15 19 26 34 50 62 70 68 65 66 65 70 72 73 73 74 76 76 77 81 78 72 76 76 74 68 68 67 66 68
18 19 16 15 20 26 33 40 49 53 62 63 64 65 68 72 73 73 72 76 75 68 64 70 72 66 68 70 73 73 72 75
21 19 21 21 21 21 25 31 41 53 54 53 52 57 58 62 57 57 55 55 55 58 58 59 63 66 68 70 75 76 77 72
21 25 23 25 24 26 26 29 32 36 38 39 39 41 44 45 45 45 48 48 49 52 56 60 62 64 56 58 63 68 68 64
14 17 24 33 33 32 32 30 32 34 36 37 36 37 40 43 47 48 49 50 53 55 56 52 51 51 57 58 57 62 69 60
17 14 7 12 24 30 36 38 34 36 37 38 39 42 42 43 48 50 50 51 54 54 44 45 38 52 46 39 48 55 83 75
17 17 18 14 14 15 28 34 37 39 46 49 49 47 47 48 49 46 46 46 47 46 49 43 35 38 54 41 58 82 76 80
16 16 19 21 18 14 10 21 29 29 30 32 32 37 39 37 33 37 40 41 45 44 39 48 46 54 62 57 72 76 78 84
18 20 18 19 22 20 15 11 11 24 29 33 36 41 41 43 42 41 41 37 45 52 55 61 52 55 61 69 79 89 91 92
17 18 20 19 19 20 19 18 15 16 19 22 27 35 44 49 50 49 46 46 49 56 62 65 64 68 72 77 82 89 95 98
20 19 22 21 20 20 21 20 18 15 18 21 24 28 32 33 36 39 40 42 53 63 66 67 70 74 78 83 87 91 97 100
25 24 26 23 22 23 23 25 25 24 22 19 20 23 26 30 31 33 34 39 44 49 53 58 60 61 59 61 64 66 66 68
31 28 30 32 25 27 29 29 28 27 29 27 30 30 31 32 34 35 34 35 38 43 46 50 54 58 60 64 65 66 70 73
37 34 35 35 34 30 29 33 33 33 37 36 35 36 37 39 40 42 42 44 45 48 49 50 52 57 62 65 68 71 76 78

GFSFLT1_250_spd_084.txt.gz
Wind_Speed
45 50 47 39 50 47 51 49 52 48 42 44 38 42 44 50 50 49 47 49 51 48 53 56 56 57 60 62 62 64 60 53
45 51 53 50 43 47 43 53 54 52 53 43 45 42 46 50 54 52 54 57 58 59 61 61 61 61 61 55 53 51 61 65
45 50 47 54 59 55 50 48 51 51 58 56 54 54 50 54 58 64 62 64 65 64 65 66 63 62 62 60 66 66 60 59
43 42 40 44 48 61 63 57 47 55 55 57 62 58 64 61 59 59 68 73 72 73 72 67 70 70 70 68 65 63 61 59
19 24 46 42 37 41 67 67 68 57 57 61 60 60 65 64 70 70 68 66 72 74 72 74 69 62 58 60 65 68 63 62
14 13 17 26 39 43 46 65 65 67 70 70 66 67 65 64 63 64 62 65 63 63 66 68 60 66 64 69 72 65 71 70
13 15 15 16 18 20 25 35 53 64 69 65 68 71 78 69 70 65 66 67 67 68 67 63 68 69 70 68 74 74 73 75
15 12 16 18 21 20 21 21 26 31 39 53 57 60 67 69 67 66 68 68 68 65 65 66 63 61 65 71 66 69 75 74
14 13 13 17 22 25 26 26 24 25 28 32 39 40 47 55 60 55 57 60 58 56 49 52 56 60 60 66 67 66 70 72
17 17 16 19 20 23 28 31 27 29 31 33 34 33 35 37 41 47 48 49 49 52 54 56 58 61 61 60 61 59 59 59
12 13 15 18 18 17 20 26 34 33 32 33 35 37 38 39 41 43 45 46 48 50 54 56 57 54 53 52 55 47 41 45
14 15 16 19 21 20 13 12 26 34 37 38 38 38 39 41 43 42 46 48 52 53 54 53 53 53 54 52 48 44 42 52
15 16 15 21 21 18 18 11 7 23 33 36 36 38 43 46 48 47 47 46 44 42 43 44 39 51 57 59 58 59 59 62
20 22 21 19 20 19 17 15 14 12 11 15 16 18 20 25 27 28 31 34 38 40 43 42 35 53 58 61 68 67 68 70
30 27 27 21 19 19 19 17 16 15 14 14 16 16 17 21 23 25 27 31 34 35 38 42 49 56 60 63 62 63 64 66
35 33 30 27 21 22 21 19 20 19 19 18 19 20 20 22 24 27 31 34 35 36 38 40 45 51 58 60 64 63 63 64
42 39 34 34 27 25 27 26 25 25 24 24 25 26 27 27 28 29 31 35 38 41 44 45 46 50 52 54 55 56 56 56
40 44 44 39 35 30 29 32 32 29 28 29 31 33 34 36 36 37 37 39 40 42 46 49 52 53 55 58 59 62 63 65
46 47 46 42 38 39 38 36 38 37 35 35 35 38 39 39 42 43 45 47 48 48 49 52 53 55 61 64 67 68 69 71

GFSFLT1_250_spd_087.txt.gz
Wind_Speed
32 37 34 35 28 27 33 48 43 40 37 34 34 26 27 34 40 43 41 42 46 49 48 53 52 50 53 57 50 54 52 52
21 34 34 36 35 33 40 45 39 44 47 43 36 37 30 30 38 46 50 46 41 42 50 50 53 57 61 61 59 58 57 56
20 22 32 41 41 38 39 39 31 31 34 50 46 45 41 33 35 39 48 53 55 56 55 60 60 57 60 58 58 65 63 69
23 16 23 32 35 43 42 43 48 40 35 28 37 45 50 48 44 42 45 46 48 52 54 58 61 68 71 68 65 71 69 66
24 12 11 22 33 39 34 32 47 45 47 44 38 38 48 56 52 53 54 52 55 58 60 63 64 68 68 63 60 61 65 59
21 10 5 7 12 22 33 36 31 44 43 50 52 47 46 53 56 53 56 58 59 63 66 68 60 62 60 60 62 61 60 59
20 8 5 8 9 10 13 23 31 40 43 42 47 49 48 51 55 59 63 63 62 64 63 61 58 63 62 61 59 57 54 57
24 16 8 5 9 12 14 14 17 22 25 33 43 50 54 54 54 57 59 57 55 53 55 57 56 56 58 52 54 52 56 60
22 18 18 15 13 12 14 20 22 21 20 19 24 28 32 36 37 43 45 49 49 50 46 48 46 48 48 50 53 55 53 59
21 16 16 15 17 18 17 18 21 26 25 22 19 23 26 29 30 31 33 35 38 40 42 48 49 49 51 54 54 52 56 52
20 16 17 16 14 17 22 20 17 26 29 26 26 28 29 32 33 33 35 37 39 42 46 48 47 47 49 52 51 52 50 48
17 17 14 15 16 17 21 24 18 14 23 27 30 31 31 32 34 35 39 41 41 43 44 46 47 45 44 48 52 45 53 55
22 19 17 17 17 16 16 17 18 14 6 17 25 28 30 33 35 35 38 41 42 43 41 41 41 45 42 33 37 45 55 58
26 27 25 18 22 18 17 16 14 12 11 9 6 9 14 18 18 16 16 17 19 22 23 25 28 30 24 18 45 55 57 55
29 26 30 31 24 23 21 20 17 16 15 14 13 11 10 11 13 16 18 20 22 24 26 29 31 33 36 40 45 49 52 54
36 31 33 35 34 31 26 23 23 20 20 21 22 21 21 20 20 21 24 26 28 29 29 31 35 39 42 43 46 50 54 58
40 37 39 43 39 39 34 31 27 27 26 26 26 28 28 28 28 30 31 32 34 36 37 38 39 41 44 48 51 54 57 60
48 40 43 46 46 43 43 38 37 35 32 33 33 33 34 33 32 33 36 37 38 39 41 43 46 48 51 54 57 59 62 65
55 51 48 51 48 47 49 47 44 42 42 41 37 36 40 41 39 39 39 40 41 43 46 47 50 53 56 59 61 64 67 69

GFSFLT1_250_spd_090.txt.gz
Wind_Speed
8 24 37 40 30 21 25 31 34 35 41 39 38 33 32 39 40 38 40 41 42 43 39 43 41 44 48 46 50 49 56 58
11 8 29 41 43 28 30 32 36 40 41 42 41 43 44 36 35 37 43 46 44 45 46 42 51 57 51 52 59 53 57 63
17 11 13 32 47 45 35 35 31 39 48 44 42 39 38 36 34 34 43 49 49 50 52 52 47 52 52 52 55 62 66 67
29 17 12 17 39 46 50 40 38 37 40 47 49 47 45 40 40 38 38 46 54 53 53 56 58 59 60 63 66 67 63 57
26 29 14 12 20 39 47 49 42 35 36 37 34 33 35 35 42 44 47 48 48 50 50 50 54 58 61 61 63 62 60 63
25 27 16 10 12 19 38 37 40 38 33 41 43 38 37 35 38 41 44 46 48 49 52 54 56 58 61 62 60 62 62 58
20 22 19 9 7 10 14 29 46 43 36 35 43 45 45 46 47 49 52 52 55 56 56 59 62 62 62 62 61 57 53 51
18 18 15 13 5 5 9 14 20 31 38 40 39 43 47 49 52 55 54 56 57 59 59 62 64 67 65 58 52 50 49 53
18 13 17 15 14 10 7 4 14 21 25 30 35 40 42 47 50 49 53 56 58 61 62 57 55 51 48 49 49 53 54 54
18 16 12 14 10 10 10 12 14 15 23 24 22 22 25 29 33 37 37 37 37 36 38 42 44 47 49 50 50 52 52 53
18 22 13 13 11 10 13 15 15 17 17 24 24 22 21 24 25 24 25 29 32 35 37 40 44 47 49 50 52 55 55 53
17 24 18 14 12 10 13 16 16 17 13 16 26 25 24 25 25 27 28 33 36 40 43 46 48 49 49 50 51 50 46 41
21 22 23 19 17 15 14 15 13 15 14 7 11 24 28 30 32 34 36 39 41 41 42 43 41 40 40 38 33 34 37 33
26 24 23 22 23 21 20 18 13 10 13 11 7 5 10 17 22 25 25 25 23 26 24 23 24 25 27 27 29 31 34 39
31 28 23 21 22 26 27 22 21 17 15 14 13 13 12 11 11 13 15 18 19 21 21 25 26 26 28 30 32 35 39 43
45 38 35 34 27 27 32 31 29 27 24 22 20 20 20 21 21 21 22 24 25 26 27 28 29 31 33 35 38 40 43 46
52 47 42 43 38 29 29 35 36 37 33 31 30 29 28 28 28 28 30 31 32 32 33 34 34 34 35 37 39 44 45 47
60 57 49 48 46 42 32 29 36 39 39 38 37 41 39 37 38 36 35 37 38 39 39 40 41 41 44 47 50 52 54 57
63 62 61 55 52 49 45 37 38 36 43 46 46 46 46 46 48 45 42 44 46 48 47 47 48 49 52 54 57 59 62 65

GFSFLT1_250_spd_093.txt.gz
Wind_Speed
30 30 24 38 33 31 30 31 37 41 42 58 49 45 43 46 42 45 44 39 32 34 31 31 35 34 31 31 36 43 52 52
31 29 25 33 43 36 33 35 35 37 36 47 45 43 41 38 46 45 44 41 37 36 36 40 49 40 37 37 40 47 52 55
30 25 20 27 40 44 39 35 38 37 39 39 48 47 45 38 42 40 39 41 42 41 43 48 51 44 44 46 48 57 64 61
29 26 15 19 29 45 46 41 37 38 41 45 42 43 48 40 42 44 41 41 43 43 48 54 50 52 57 55 55 60 61 68
28 24 23 9 11 32 49 51 40 39 41 42 47 48 46 45 42 41 39 40 39 49 50 55 51 57 64 63 66 65 68 65
24 27 22 16 9 14 37 54 52 43 42 44 45 50 49 49 46 42 44 45 44 48 52 60 66 67 68 67 67 65 66 68
22 27 20 18 10 12 15 37 49 52 47 48 47 46 46 53 52 47 46 46 51 56 58 58 58 62 64 65 63 64 68 72
19 18 19 14 11 8 10 16 37 46 54 58 49 47 51 49 47 49 49 49 50 54 57 58 60 59 60 63 68 68 68 65
24 16 17 16 9 4 6 1 13 28 44 51 54 54 52 53 52 53 54 54 58 63 65 62 63 66 70 71 71 69 66 66
26 16 16 19 13 12 8 7 5 5 11 33 47 53 52 50 56 60 61 62 63 67 69 69 71 71 68 72 70 65 66 63
29 25 22 19 19 12 10 12 11 10 10 16 33 37 43 50 55 59 65 68 71 72 72 73 74 74 69 60 54 56 59 62
32 35 22 19 22 18 15 14 15 16 11 10 18 29 35 35 38 47 58 63 60 58 58 47 46 45 47 52 56 57 58 61
38 35 27 25 21 24 21 18 17 19 22 10 6 4 16 25 27 26 29 31 35 36 40 45 48 51 53 55 58 60 56 52
39 36 37 27 23 25 28 24 21 20 23 22 13 8 6 10 21 30 35 38 40 44 46 49 50 47 41 37 34 36 37 37
41 37 43 37 29 27 24 21 25 26 26 25 21 15 12 12 13 14 15 18 23 25 27 28 29 29 32 34 36 36 36 36
45 44 40 42 37 33 26 26 28 25 25 30 28 25 22 21 22 21 22 23 24 25 28 30 32 34 36 39 39 40 38 37
49 47 46 47 44 40 37 43 34 30 31 26 28 31 33 32 31 30 30 31 33 34 36 37 38 39 43 45 44 44 46 48
54 52 48 53 49 50 50 47 39 41 35 31 31 30 35 37 38 41 41 41 40 43 45 46 46 48 50 51 52 52 53 54
60 59 56 52 52 49 53 52 48 47 48 45 35 36 40 40 45 48 48 48 50 54 56 56 54 55 56 58 60 59 60 61

GFSFLT1_250_spd_096.txt.gz
Wind_Speed
30 28 26 23 19 32 33 30 39 45 51 55 49 55 59 64 51 47 46 35 39 40 35 31 28 26 29 28 28 27 28 39
30 28 28 25 21 30 37 34 39 40 54 54 53 52 54 52 46 44 46 40 36 44 40 35 36 31 35 39 36 33 34 32
30 30 30 24 27 22 42 41 36 43 53 54 58 57 51 50 52 48 50 45 39 46 45 39 36 40 38 41 43 43 46 45
31 28 27 23 25 22 43 42 42 41 44 51 56 53 52 54 48 43 43 44 39 43 43 44 47 47 47 45 50 50 51 55
31 27 25 19 24 22 27 50 44 46 44 47 54 58 57 52 53 47 42 46 49 47 47 49 51 53 49 55 56 58 55 57
31 25 25 19 19 17 26 46 54 46 47 45 50 50 52 59 52 52 50 46 48 51 50 53 52 54 54 60 59 62 65 64
31 25 22 17 16 18 15 29 52 54 48 51 53 54 55 54 57 55 53 49 49 50 50 50 50 52 53 54 58 63 68 69
30 25 21 17 14 17 17 12 31 54 49 49 51 56 52 55 55 55 56 56 54 52 53 51 53 55 57 60 62 65 71 73
32 25 22 18 15 14 12 10 10 26 51 52 54 52 54 56 58 59 59 60 57 56 55 58 56 60 62 63 64 67 70 71
34 28 25 20 18 13 14 6 3 3 17 43 49 52 54 53 54 57 58 57 57 59 57 61 62 64 64 66 68 70 70 72
32 31 31 27 23 21 15 13 7 5 7 11 21 48 58 57 58 57 58 57 58 60 61 62 64 67 69 71 73 74 73 71
36 33 34 29 27 25 18 16 17 13 10 8 12 22 37 54 59 57 59 61 63 64 65 67 69 73 74 75 77 75 76 75
41 36 33 34 32 28 25 21 21 21 17 15 9 15 13 31 41 49 61 63 62 69 66 70 73 76 76 76 76 66 67 69
46 44 36 33 36 31 31 25 23 27 23 21 19 12 14 9 20 30 36 40 45 54 61 68 73 74 71 70 78 76 67 65
51 47 47 37 37 36 36 33 27 27 22 20 20 20 17 17 16 14 13 16 21 25 31 36 40 41 44 47 46 45 43 45
56 50 49 44 43 40 41 39 33 32 26 24 22 19 23 23 23 21 21 21 22 25 26 28 29 31 34 35 37 41 43 46
60 56 54 52 43 40 39 41 41 38 33 30 35 31 20 21 21 24 29 32 33 33 33 33 35 38 42 44 46 49 53 53
61 58 55 54 57 50 44 43 41 40 40 38 37 37 37 33 33 33 32 31 32 37 41 42 44 45 47 52 55 58 61 62
66 66 59 52 56 57 54 49 51 49 45 47 47 42 43 45 43 42 41 41 41 41 44 48 52 52 55 57 60 62 65 68

GFSFLT1_250_spd_099.txt.gz
Wind_Speed
29 26 31 34 32 31 27 31 26 32 30 38 41 44 46 51 53 46 58 57 54 49 38 27 23 24 24 22 22 27 28 31
26 26 28 33 34 33 29 28 31 34 34 34 45 50 50 60 54 50 58 54 58 49 43 33 29 30 32 29 29 27 29 31
28 25 29 34 33 33 33 26 40 34 40 31 42 52 56 54 53 49 53 47 50 53 46 39 42 37 35 36 35 33 34 36
30 25 29 32 33 32 32 26 31 38 38 36 38 55 53 58 56 59 54 44 47 47 51 49 39 45 48 41 43 41 42 41
32 25 27 29 31 31 30 25 24 45 41 40 39 44 49 53 56 62 58 65 47 45 48 47 48 47 55 53 51 49 47 49
30 25 25 26 27 28 24 21 18 40 43 43 41 41 46 51 51 54 56 50 47 49 45 48 48 48 54 53 51 50 52 54
30 29 23 24 23 25 21 18 17 28 44 43 45 44 45 51 49 50 50 50 49 47 43 45 46 47 51 51 53 53 55 57
31 30 22 21 21 20 20 14 17 18 43 53 46 48 46 49 52 54 53 52 52 49 48 49 49 51 52 53 53 57 58 57
34 28 24 23 20 22 19 15 12 12 16 50 56 48 48 47 51 57 61 61 56 55 53 52 52 52 54 56 58 61 62 61
36 29 26 27 23 21 17 15 11 10 8 17 46 54 51 54 56 60 62 61 63 61 60 58 59 58 61 64 64 64 64 66
36 30 29 28 25 24 22 15 16 10 8 6 11 23 45 53 55 54 58 61 63 65 64 67 65 65 67 67 66 66 68 70
40 33 33 32 29 30 28 23 16 16 13 10 11 18 19 23 46 59 56 57 62 65 64 64 64 65 65 65 66 67 70 72
37 39 35 34 34 29 32 28 23 21 18 18 15 15 16 21 30 45 53 59 60 62 63 65 63 63 65 66 69 70 73 74
43 39 39 39 38 38 28 30 30 28 25 24 20 18 17 13 10 11 26 38 51 62 62 63 65 69 73 74 76 77 81 81
39 42 47 44 44 39 36 32 32 30 28 27 25 25 23 18 13 13 13 14 22 33 41 45 51 56 59 64 69 70 67 64
49 56 47 44 46 45 42 39 35 36 36 32 32 30 24 21 18 21 19 22 21 20 21 23 24 27 30 32 34 37 39 43
48 48 46 44 48 48 45 43 42 42 40 37 36 35 30 26 28 31 30 25 23 26 27 31 34 36 38 38 40 43 46 48
51 46 47 47 47 50 52 48 47 43 43 41 36 39 43 42 36 34 38 36 34 36 38 38 37 37 40 43 45 48 52 55
55 57 52 54 46 48 51 51 55 55 53 47 44 43 38 46 46 42 43 42 45 45 44 47 48 51 53 53 53 54 54 57

GFSFLT1_250_spd_102.txt.gz
Wind_Speed
37 29 32 28 25 26 30 35 31 25 29 32 33 37 37 36 38 36 46 50 45 48 31 19 13 16 19 22 28 27 34 40
39 29 31 29 25 26 30 34 30 28 27 34 35 38 44 35 35 37 41 44 43 46 44 37 35 22 23 23 26 25 30 30
39 29 34 32 25 26 30 34 30 29 22 36 35 39 42 37 41 38 41 41 44 51 50 40 42 44 34 31 32 31 29 28
34 27 29 31 24 26 29 31 30 33 20 35 37 42 43 42 46 46 48 46 46 51 53 49 51 46 41 45 44 41 41 37
39 28 28 27 24 24 27 28 30 30 22 36 40 40 46 45 47 54 49 55 55 50 57 60 50 45 45 47 44 46 47 45
39 29 28 25 24 22 25 25 27 27 22 33 40 39 41 47 50 53 53 53 49 47 46 45 45 48 50 53 52 51 51 53
34 30 29 27 23 20 23 20 23 23 20 24 44 40 40 43 52 57 56 60 60 57 50 46 47 47 50 53 56 56 59 59
38 28 30 29 22 17 22 20 23 19 17 15 39 46 41 43 43 52 57 58 56 56 55 51 50 51 51 53 55 54 53 56
50 38 28 30 26 18 21 17 18 17 15 16 15 44 46 44 43 48 53 55 56 55 51 51 53 52 48 50 53 55 58 59
48 43 31 30 25 21 22 17 17 17 16 13 14 18 47 45 43 46 51 52 55 55 56 55 55 57 56 58 59 60 61 63
44 45 36 32 29 23 21 19 18 16 17 12 9 9 18 41 48 45 46 50 53 56 58 61 63 62 62 61 62 64 65 65
41 42 37 33 30 25 26 22 25 19 17 16 14 12 14 19 30 42 56 52 50 54 56 59 63 63 64 64 65 65 65 66
41 38 37 35 33 30 26 28 21 25 23 21 20 20 18 20 26 33 40 54 61 56 59 59 58 61 64 64 61 64 66 64
43 37 33 38 38 35 30 31 33 24 26 28 27 26 24 27 27 26 27 33 42 51 60 63 64 63 63 63 65 66 66 67
44 43 36 34 34 38 37 35 33 36 27 29 30 30 29 26 27 25 23 21 17 22 33 41 49 54 59 64 63 65 71 73
45 46 42 31 34 37 42 40 40 36 36 33 35 33 34 32 30 28 26 23 20 21 21 20 22 27 31 33 36 37 37 38
52 46 44 40 39 31 35 33 34 39 41 37 38 36 39 39 36 34 33 30 31 29 30 30 28 31 33 34 36 38 40 42
56 52 56 52 43 38 40 37 35 40 42 44 42 41 41 43 39 41 39 37 35 34 33 36 39 41 43 42 43 45 47 48
57 52 56 62 61 59 52 42 36 43 46 49 45 47 48 45 46 45 47 47 49 46 43 42 44 46 49 51 53 53 55 56

GFSFLT1_250_spd_105.txt.gz
Wind_Speed
49 50 33 39 39 32 30 29 27 27 29 22 21 24 23 30 40 41 41 38 40 44 42 31 41 33 28 21 14 19 18 25
48 48 37 36 36 33 29 28 28 28 29 20 21 27 28 35 46 38 35 33 42 44 39 41 29 25 19 17 14 21 22 28
46 44 40 36 39 33 30 27 27 28 28 21 19 31 32 33 47 42 41 35 41 46 44 46 41 35 27 19 17 20 24 22
45 45 42 35 38 31 27 26 25 28 29 23 17 30 36 35 36 39 36 39 38 51 48 41 45 44 46 40 37 32 32 33
46 47 42 30 35 29 27 24 23 28 28 24 20 32 39 37 37 36 35 37 36 45 35 43 45 46 47 41 38 36 38 40
43 44 36 36 32 28 24 22 23 26 27 22 20 31 37 38 40 40 42 37 39 45 49 44 52 45 50 53 47 44 42 45
45 47 40 40 37 32 23 21 21 25 24 20 19 26 38 42 42 44 45 41 44 45 45 52 57 49 49 49 51 56 56 49
49 51 41 38 35 27 25 21 19 24 17 18 17 12 38 42 42 47 48 53 49 53 50 55 53 49 51 50 50 51 54 49
55 49 44 32 33 30 27 22 23 20 16 16 16 10 28 40 43 44 47 53 55 55 54 51 57 57 55 55 53 54 52 57
55 49 47 43 30 30 28 24 26 19 16 14 15 10 7 41 43 43 47 48 56 61 61 63 61 56 61 62 57 56 57 57
52 51 43 47 46 32 30 31 24 23 18 14 13 10 8 10 44 45 43 49 49 54 59 64 64 67 57 56 55 57 57 58
42 44 44 40 41 41 34 30 26 24 22 17 14 13 11 10 14 40 48 45 47 51 55 59 59 59 59 59 60 61 63 63
54 51 48 36 39 39 39 37 34 23 22 22 17 17 16 16 16 18 33 49 50 50 51 54 59 60 62 63 65 66 67 67
61 54 40 36 40 38 39 36 31 31 26 22 24 22 20 19 21 23 24 30 34 41 48 56 60 59 58 59 62 63 63 64
49 44 44 42 42 39 40 39 37 31 30 33 28 28 27 25 25 24 22 25 27 29 31 36 47 55 59 63 65 64 68 73
46 45 43 43 46 42 42 39 37 37 34 35 32 33 32 32 29 29 28 25 25 27 28 25 25 28 33 39 44 47 50 51
51 48 45 48 43 41 34 35 36 38 36 38 39 37 34 32 34 36 35 33 31 33 32 31 30 31 31 32 34 34 36 38
50 53 53 51 50 41 39 31 31 37 42 40 40 37 36 38 36 37 41 38 38 38 39 41 40 37 37 38 38 40 43 45
62 56 55 53 51 48 44 46 44 49 44 41 39 39 40 41 42 44 43 42 41 42 43 42 47 48 49 49 48 46 48 50

GFSFLT1_250_spd_111.txt.gz
Wind_Speed
52 55 52 52 48 46 41 33 34 35 38 31 27 26 23 23 26 26 32 28 26 39 43 51 54 52 39 33 32 26 22 15
53 55 55 55 50 47 39 39 35 34 34 32 29 26 23 22 25 29 32 26 28 32 36 48 50 52 42 38 36 37 23 21
60 59 57 55 53 50 46 36 34 33 32 30 29 28 24 25 23 30 33 28 30 34 40 48 36 42 42 41 36 29 32 31
55 56 54 52 51 51 45 35 37 35 32 30 28 28 25 26 21 32 35 29 29 39 47 44 37 44 45 41 37 27 26 32
56 57 58 56 58 50 46 33 34 37 33 31 29 27 25 25 20 34 36 32 29 37 40 48 47 43 41 38 34 32 33 31
58 60 61 58 54 47 44 32 31 38 34 32 30 28 26 26 22 35 40 39 38 38 40 39 43 42 43 46 38 35 34 31
55 58 58 55 51 44 39 33 33 39 34 32 31 30 25 22 23 37 43 42 41 43 39 39 40 39 35 38 42 42 40 40
56 56 54 51 47 44 40 32 35 40 34 33 30 28 23 21 22 36 45 46 44 46 44 42 43 41 38 33 36 42 42 44
51 50 50 48 49 44 43 33 37 38 33 32 29 26 23 21 23 27 43 46 47 48 47 46 46 44 41 45 37 41 48 56
47 47 52 49 49 47 41 34 40 36 32 31 30 25 23 21 22 24 40 45 47 47 52 53 47 48 50 50 49 51 42 45
48 44 46 48 49 48 38 37 42 37 38 35 33 24 24 22 20 19 49 41 50 50 55 53 55 58 57 60 59 59 52 52
47 41 43 49 48 44 37 41 36 39 35 38 34 28 26 23 19 12 43 43 49 52 50 57 56 58 63 60 59 64 59 58
47 37 44 45 46 39 39 41 37 41 38 41 36 32 28 26 23 16 28 43 50 46 47 52 53 55 55 61 66 63 66 68
46 37 44 46 41 38 43 43 40 37 40 42 39 36 30 32 28 24 18 31 42 52 56 53 52 57 60 64 67 67 68 69
47 39 42 39 38 43 48 46 49 44 41 38 37 39 30 34 33 30 27 25 28 40 47 60 62 58 58 60 61 62 64 65
45 43 46 36 39 45 43 45 50 47 47 45 40 39 37 34 37 36 35 33 33 32 33 36 41 42 45 45 47 50 53 55
48 47 45 42 44 44 49 52 54 54 49 48 47 40 41 39 36 41 39 39 38 37 34 37 38 40 41 41 40 38 40 48
52 48 46 52 59 56 51 54 58 57 52 47 46 43 41 42 40 41 40 43 44 44 41 40 40 38 38 40 40 39 41 42
52 49 45 60 65 58 53 55 56 54 48 46 45 42 44 48 50 48 48 47 45 45 45 45 45 45 46 46 44 43 45 48

GFSFLT1_250_spd_114.txt.gz
Wind_Speed
56 58 54 52 47 44 45 45 47 46 43 42 39 35 33 29 26 23 25 28 31 33 25 27 38 51 58 43 39 37 29 20
53 48 48 48 48 45 47 48 47 42 43 40 39 37 35 31 27 22 24 28 31 31 29 31 38 52 62 47 38 34 31 26
54 52 51 51 53 52 50 49 47 43 47 41 40 37 36 34 28 22 24 29 32 31 29 28 39 50 61 54 46 42 36 34
60 58 55 57 56 53 50 48 48 49 49 40 39 36 34 33 30 24 24 26 32 32 29 30 38 46 55 60 51 40 41 38
67 62 61 59 56 55 54 52 53 48 49 39 38 36 34 32 30 23 25 25 33 32 31 34 40 45 54 58 50 47 50 36
70 64 63 58 56 57 54 56 50 50 47 39 39 37 37 34 30 27 26 25 35 33 34 31 39 39 42 45 50 48 40 37
67 63 62 58 58 59 58 54 53 49 42 38 38 36 36 34 32 27 26 23 36 36 35 30 40 44 37 40 47 40 39 40
65 60 60 58 60 58 55 54 54 49 43 39 38 38 37 33 31 27 26 21 37 39 36 37 40 46 41 44 45 42 41 40
64 63 61 61 58 56 54 53 52 49 43 38 40 41 37 33 30 26 23 18 37 43 40 41 43 46 44 50 42 44 49 53
64 62 60 58 58 55 54 53 53 49 41 39 42 41 36 36 29 27 18 21 37 46 43 46 42 46 46 44 41 38 35 38
63 62 60 58 55 53 54 53 52 45 40 40 44 42 40 37 32 27 17 23 34 47 47 45 48 53 50 47 44 42 46 48
62 60 57 54 53 53 53 52 49 43 40 43 44 42 41 37 35 27 17 19 35 42 49 46 45 47 55 51 51 52 55 54
59 57 54 53 52 52 53 53 47 41 42 47 47 41 42 39 35 29 18 16 39 47 51 49 47 58 50 53 59 62 61 63
55 53 52 49 50 49 51 52 48 40 44 48 47 42 42 41 37 32 23 16 41 45 51 46 47 53 59 56 60 61 61 65
49 47 48 47 47 45 49 49 41 40 48 48 46 43 45 44 41 35 28 26 27 45 44 43 54 51 54 53 59 62 64 64
52 52 48 47 46 39 47 46 40 43 46 48 47 42 44 44 41 37 34 33 30 29 43 50 52 53 56 57 60 62 61 61
60 55 55 50 44 40 48 44 43 51 49 46 43 44 43 41 43 42 36 38 37 35 34 38 48 60 59 55 52 54 58 64
63 64 61 57 43 43 50 42 45 55 55 49 47 45 44 39 37 40 38 39 43 43 43 41 39 42 47 50 51 57 57 57
64 62 57 56 45 48 46 41 34 53 51 52 52 50 48 45 46 42 42 43 43 44 47 44 43 42 42 44 47 49 50 51

GFSFLT1_250_spd_120.txt.gz
Wind_Speed
73 71 69 67 68 68 65 66 60 60 51 50 50 45 38 41 40 37 37 33 30 35 34 34 32 30 34 35 33 38 38 39
76 74 72 72 69 69 69 64 62 56 51 52 49 45 39 43 43 41 39 37 31 34 37 35 34 30 35 38 36 34 43 44
74 70 71 72 69 67 67 66 57 52 51 55 50 47 43 43 45 45 42 41 36 35 38 34 35 30 33 38 37 34 44 48
70 69 66 63 61 58 57 55 54 53 49 52 48 48 47 44 48 46 46 43 39 40 39 35 34 33 31 40 40 31 43 53
64 63 63 62 58 53 49 52 52 49 47 48 49 51 49 48 50 50 51 46 41 42 41 37 33 35 29 38 37 32 38 49
71 67 70 64 58 54 55 57 55 52 57 56 56 54 51 51 51 52 50 48 43 40 44 39 33 35 30 37 36 34 34 43
76 71 69 69 69 69 69 73 66 62 68 63 56 57 56 53 54 53 53 48 41 42 42 40 32 35 33 38 35 35 36 44
85 84 77 73 70 67 65 69 65 60 62 59 60 58 55 55 55 55 53 48 40 40 43 42 36 36 35 39 35 32 33 43
86 81 79 77 72 75 75 69 62 57 63 60 56 56 55 56 56 56 54 46 39 40 44 40 41 37 36 44 36 33 30 39
81 78 75 78 73 71 70 66 64 60 59 58 54 55 54 56 56 57 52 43 39 41 46 41 40 38 35 47 38 30 28 34
80 76 74 74 73 71 71 68 66 63 60 57 55 56 57 58 58 55 51 43 39 43 45 43 41 41 38 49 37 36 33 35
77 78 76 75 72 71 71 68 68 65 62 60 58 58 58 58 56 54 50 43 39 44 43 42 39 43 39 46 42 38 32 40
72 71 71 69 71 70 68 67 68 66 62 60 58 56 57 55 55 53 48 43 38 44 42 41 37 43 38 44 48 47 37 35
68 69 67 63 67 66 63 64 64 65 62 62 59 58 58 57 55 51 45 42 39 43 41 38 36 37 37 45 45 48 41 37
68 62 63 68 73 69 65 66 61 58 58 59 57 59 58 57 53 47 42 39 41 42 41 38 31 34 39 46 47 43 39 40
58 63 65 66 74 73 71 69 64 58 58 59 58 55 56 54 51 43 41 42 44 42 42 37 30 35 40 45 47 46 39 43
74 66 63 64 66 63 61 58 53 53 54 57 57 54 54 57 52 43 39 46 46 42 44 37 38 25 42 45 49 50 47 42
60 59 52 53 52 50 49 49 51 52 55 55 55 53 55 56 47 43 43 48 49 43 43 40 39 34 32 46 52 52 53 51
82 73 64 57 51 48 51 51 51 53 56 53 54 56 57 50 42 42 45 47 48 42 41 42 42 40 34 36 48 53 58 58

GFSFLT1_250_spd_123.txt.gz
Wind_Speed
69 70 69 67 64 61 57 54 58 57 55 53 56 53 50 48 48 39 41 37 36 37 35 33 41 39 34 29 27 32 35 33
68 71 71 68 63 64 60 57 59 61 58 56 54 53 51 49 52 44 42 40 39 38 36 34 39 41 36 36 31 31 34 33
72 72 69 66 66 65 64 59 61 61 58 54 54 54 50 47 51 48 45 43 42 44 41 39 34 43 40 38 34 33 35 37
68 68 66 64 62 63 58 57 60 57 59 54 55 45 51 48 46 48 47 47 46 47 44 39 36 40 43 39 36 34 34 39
71 72 66 61 61 61 58 59 58 53 54 50 44 43 47 47 46 44 46 50 49 46 46 40 40 36 44 41 38 34 37 41
77 74 67 64 61 57 59 58 56 49 47 47 43 39 42 41 45 48 54 50 53 50 46 43 41 36 44 42 38 33 37 39
80 79 75 68 63 58 57 59 58 51 49 49 45 44 46 49 51 52 54 52 55 50 44 44 42 37 43 44 39 35 36 41
80 74 73 69 65 62 61 59 60 53 51 58 61 60 59 60 51 52 53 53 55 52 47 44 42 39 42 44 41 37 36 40
74 73 72 70 68 67 64 61 54 51 54 58 59 58 55 56 55 51 50 52 53 53 48 45 44 40 41 44 41 38 36 40
66 68 68 70 72 73 70 70 70 68 68 68 65 64 57 53 51 49 50 53 53 52 47 46 44 40 43 44 43 40 37 38
59 56 66 68 69 69 70 69 69 67 66 67 60 59 55 51 51 49 49 53 53 51 50 48 45 41 43 45 42 39 39 39
64 64 64 65 66 67 67 69 67 67 68 66 64 61 57 54 52 52 50 52 55 53 52 47 43 42 43 47 41 41 39 41
60 63 66 55 63 65 65 67 67 71 71 66 62 62 63 56 54 53 50 53 52 51 47 47 41 43 42 45 45 40 40 43
58 57 59 64 69 72 72 66 65 67 64 64 62 59 58 55 56 53 50 49 49 48 46 45 38 42 42 42 44 41 41 43
64 64 54 48 52 58 61 63 64 64 63 62 57 55 56 57 56 53 51 51 49 48 45 40 38 40 40 41 41 41 39 44
67 63 60 60 63 67 64 63 64 66 63 63 64 57 54 52 53 49 51 49 48 45 41 37 38 39 38 39 36 35 33 44
55 55 68 57 49 49 48 51 55 59 64 67 67 64 60 55 50 50 52 49 48 44 37 39 40 38 38 35 33 31 34 40
61 57 53 53 52 51 61 59 60 62 67 64 63 62 63 57 52 50 49 50 48 45 41 41 43 41 39 36 32 33 36 38
56 72 66 72 67 59 56 58 58 59 61 65 69 67 55 48 47 50 50 51 48 42 41 44 45 43 43 39 33 33 39 41

GFSFLT1_250_spd_126.txt.gz
Wind_Speed
78 80 78 69 64 63 60 61 63 64 61 56 53 54 53 51 46 47 46 40 42 42 41 38 34 32 36 33 34 35 32 32
82 84 81 75 64 64 60 60 59 62 61 58 54 53 51 48 50 50 48 42 43 43 44 45 38 36 36 35 33 38 37 33
78 84 81 78 71 65 61 59 57 60 59 57 53 50 49 50 50 51 48 44 44 44 43 45 45 40 37 36 34 38 39 35
77 83 83 80 75 67 60 57 55 59 58 58 50 51 47 46 49 48 45 43 46 41 41 44 45 43 39 39 34 38 42 37
78 83 84 76 75 70 60 57 56 56 57 53 47 44 43 46 46 48 46 46 45 42 39 40 46 46 42 39 36 36 43 40
79 85 87 80 73 69 62 61 55 53 48 44 49 47 45 44 43 43 44 42 39 38 43 45 51 47 44 37 38 36 41 41
78 82 84 82 76 71 61 57 50 44 47 52 55 50 46 43 43 45 40 39 43 45 49 45 48 50 44 39 39 36 39 42
75 78 84 83 77 71 58 56 49 50 53 56 56 53 47 47 47 43 43 45 55 54 50 47 49 49 43 38 39 38 37 43
67 72 74 76 73 71 64 57 57 59 60 57 56 53 50 49 48 50 52 54 56 54 54 50 47 48 43 39 39 40 38 42
64 69 73 74 71 69 68 67 67 66 64 61 58 58 54 55 55 48 52 53 54 52 49 50 47 48 42 40 39 41 39 40
62 68 69 73 71 69 67 69 66 68 67 66 61 58 55 53 54 57 57 53 50 48 49 49 48 46 42 42 42 40 39 41
49 54 63 67 65 72 72 72 70 70 68 67 64 63 63 62 61 58 58 53 48 47 50 51 49 46 45 46 44 39 39 42
48 54 58 63 64 72 68 70 71 70 69 66 66 67 65 61 59 62 58 58 54 51 51 51 50 47 47 45 42 40 41 44
47 55 61 58 58 61 65 66 68 72 71 70 67 65 61 59 59 62 60 59 52 49 51 53 50 47 45 44 42 39 40 43
50 56 53 59 57 56 59 60 63 63 62 62 61 61 60 60 62 63 61 58 53 54 53 54 46 43 45 45 41 37 39 39
54 51 47 51 54 57 60 58 52 52 57 59 58 60 61 61 61 61 56 55 54 54 54 53 47 44 42 41 38 36 37 36
54 57 55 55 58 58 56 54 62 69 72 62 61 64 66 63 62 64 59 55 51 49 52 49 44 41 39 38 36 35 35 33
51 61 62 60 58 57 58 56 55 56 59 58 61 65 64 63 60 60 53 55 53 51 48 43 44 40 40 36 37 37 36 31
58 60 56 58 60 65 67 68 70 64 60 61 58 60 61 59 59 58 57 58 58 53 51 44 44 42 40 37 38 38 39 32

GFSFLT1_250_spd_129.txt.gz
Wind_Speed
80 66 69 73 82 79 78 76 75 71 69 62 61 56 52 54 51 46 48 50 50 44 38 38 38 38 37 37 33 32 28 26
78 71 70 75 83 81 77 76 74 72 67 64 62 60 56 54 52 50 52 53 51 45 40 40 40 38 39 39 40 35 33 30
77 76 69 76 84 84 81 76 74 68 67 67 63 62 60 54 53 55 54 54 49 45 40 40 41 39 38 37 36 40 37 34
77 73 72 71 79 86 84 78 74 70 72 72 64 61 57 54 56 56 53 50 49 42 41 39 40 41 38 35 36 39 40 37
75 70 71 69 76 86 87 82 77 70 74 70 63 61 57 54 54 51 49 48 43 39 42 37 42 39 35 33 37 42 40 40
73 64 66 70 74 86 86 83 76 71 69 65 63 60 56 56 52 47 47 41 41 42 42 41 40 33 33 38 41 42 41 41
62 59 62 68 64 78 79 81 80 73 67 64 63 59 56 50 49 47 38 41 43 42 41 43 41 37 42 43 43 42 43 40
46 48 53 60 69 76 79 80 81 71 67 66 63 59 52 52 48 39 41 44 44 43 42 39 40 42 45 45 47 44 40 38
40 45 52 60 68 76 78 78 78 74 66 62 59 55 50 45 41 42 45 45 47 45 45 41 45 47 50 48 47 45 43 40
35 41 51 58 67 74 74 75 76 72 64 68 56 52 48 50 47 47 49 48 47 46 47 50 46 48 48 45 44 45 42 38
27 40 49 56 64 70 73 73 70 71 58 59 56 59 55 51 50 47 46 49 51 52 55 50 50 46 45 45 43 46 42 39
19 24 35 46 56 64 65 69 72 71 66 64 66 58 54 54 53 54 54 53 57 54 52 51 50 48 46 40 44 46 44 40
19 30 41 45 50 59 65 71 72 72 70 63 70 66 63 60 59 60 56 54 54 55 56 54 50 50 54 50 46 45 46 44
32 36 45 52 54 60 66 69 72 74 74 73 70 69 67 65 64 62 62 62 61 64 59 56 55 56 57 53 47 46 48 45
43 38 42 54 62 64 63 69 71 72 74 78 77 75 73 71 68 68 62 68 67 65 61 58 58 59 57 54 50 48 46 44
41 42 45 50 54 60 62 63 69 69 71 76 76 76 75 74 72 71 67 68 68 64 60 59 62 59 57 57 53 47 48 42
51 46 52 57 55 56 58 61 67 70 70 73 74 75 75 71 71 70 70 63 65 64 62 62 60 57 58 59 56 49 47 39
59 59 56 55 60 59 62 57 60 65 67 69 68 71 72 74 71 63 59 60 61 62 62 63 64 62 60 52 48 45 42 40
52 48 46 61 57 56 56 61 61 59 63 64 64 58 64 62 60 64 64 64 65 64 64 64 66 65 58 50 47 43 41 41

GFSFLT1_250_spd_132.txt.gz
Wind_Speed
84 84 80 73 66 67 73 76 78 78 76 78 72 70 65 63 62 58 53 44 43 46 45 45 39 39 35 34 34 32 32 32
89 85 85 79 73 67 69 82 83 84 80 77 74 68 71 66 64 59 53 47 44 43 48 44 43 41 38 36 35 32 30 30
82 87 85 83 76 69 65 78 89 90 84 79 77 74 73 70 63 60 54 52 47 46 46 47 48 43 40 34 33 32 31 32
82 83 85 87 79 71 65 72 88 92 89 85 79 76 71 67 64 60 60 55 49 49 49 49 49 44 41 36 33 32 31 28
75 78 85 85 80 75 67 70 83 90 95 89 80 75 71 68 68 64 62 53 50 50 50 49 47 43 41 35 35 31 28 29
65 68 77 80 78 73 67 70 77 88 95 90 79 76 71 71 68 64 59 53 50 49 48 47 46 43 40 36 36 34 34 34
54 62 68 68 63 57 55 58 68 80 89 83 75 75 74 69 65 61 53 50 49 48 49 48 47 43 40 39 40 36 36 38
40 46 54 54 40 48 44 54 63 76 86 78 77 76 71 68 65 58 52 50 48 49 45 47 44 40 38 38 37 36 39 41
32 37 46 49 44 47 51 61 66 78 86 83 77 75 71 70 64 57 53 50 49 47 49 42 42 40 39 39 38 39 43 44
27 30 35 40 47 55 55 58 69 82 90 83 74 73 71 70 65 60 54 55 50 49 50 46 42 41 39 39 38 43 44 46
23 26 33 39 43 46 54 62 67 77 85 80 75 69 67 60 52 53 53 55 50 51 48 45 43 42 39 43 50 45 42 42
22 19 24 29 40 49 54 58 59 68 77 70 65 64 60 55 47 48 50 55 58 50 45 46 44 45 46 50 54 45 44 43
26 21 18 28 39 48 54 59 62 64 62 62 62 63 59 63 49 48 51 52 49 44 45 48 49 49 49 53 55 50 47 47
29 25 17 26 38 46 48 63 64 65 64 66 59 59 65 62 50 49 55 58 55 50 47 50 52 50 53 52 54 56 54 50
29 33 29 25 34 41 48 55 59 67 74 74 65 59 55 55 56 56 62 68 59 54 51 53 53 52 52 57 55 54 54 53
37 32 27 32 39 45 49 56 63 73 74 72 70 67 66 67 71 72 67 66 64 57 52 55 58 63 64 61 57 55 54 55
48 51 53 45 47 51 55 60 64 72 74 74 72 74 73 69 71 74 72 64 64 64 61 57 60 64 66 65 62 60 60 59
55 53 54 45 47 55 56 60 64 69 73 75 75 77 76 74 73 71 73 73 72 70 70 72 73 73 69 69 73 74 66 58
59 58 53 51 54 53 53 56 59 65 72 75 78 79 79 79 78 79 78 77 77 76 74 70 78 76 72 67 63 63 62 62

GFSFLT1_250_spd_135.txt.gz
Wind_Speed
81 90 91 91 92 84 77 74 66 72 74 71 73 75 71 69 67 67 66 61 55 53 44 39 40 38 38 34 34 35 35 36
92 95 103 103 99 96 79 75 74 72 70 73 78 74 76 74 71 72 68 63 57 56 48 41 39 43 43 39 37 36 37 37
103 105 106 110 104 101 93 74 76 73 70 69 83 81 79 78 77 71 70 64 61 58 52 44 39 40 44 40 37 37 39 39
91 93 97 100 105 101 95 86 78 74 72 71 79 89 88 85 74 70 69 68 65 60 53 45 42 40 43 44 40 39 40 41
87 81 80 87 86 84 85 82 76 72 74 69 76 87 88 84 76 76 71 71 68 62 54 47 45 44 45 45 42 42 40 41
70 70 69 74 71 68 74 71 72 71 71 67 73 84 90 86 81 77 72 67 66 61 56 50 47 47 46 45 43 42 39 41
61 62 60 59 61 55 64 63 65 65 64 63 68 80 91 88 81 75 71 67 63 60 57 51 48 47 48 44 41 40 41 40
46 53 48 48 46 47 57 57 55 60 57 60 68 77 90 90 83 76 73 67 61 59 54 50 50 50 48 45 42 41 41 41
41 43 41 37 38 41 45 44 52 57 60 63 70 78 83 89 85 79 70 66 62 58 52 51 51 51 48 43 41 41 40 40
34 35 33 30 33 38 40 42 48 55 59 63 68 77 79 83 83 76 73 66 61 57 51 54 49 48 44 42 44 41 41 38
32 28 27 33 32 35 37 35 36 45 54 57 64 70 72 79 80 76 68 64 59 50 49 48 47 47 48 47 47 44 41 37
20 20 22 28 32 31 30 27 33 41 51 62 64 63 69 71 74 69 62 62 53 44 43 46 45 51 53 50 41 38 39 39
15 16 15 19 26 32 34 39 45 46 50 53 55 55 60 66 65 57 58 52 49 38 40 45 46 54 51 44 38 41 41 43
22 20 18 14 19 30 31 33 40 44 44 46 48 53 54 60 55 58 55 54 50 48 60 48 43 46 47 45 43 44 42 44
31 26 7 9 15 25 30 34 38 43 47 43 45 37 53 52 53 51 50 52 53 46 46 43 44 48 47 45 45 49 45 47
34 30 15 13 20 26 38 45 50 54 60 45 64 65 53 48 48 54 51 56 46 47 41 42 47 50 52 49 51 52 49 50
38 37 31 18 20 33 44 53 59 55 49 62 65 72 66 60 59 63 58 60 51 48 47 49 55 60 52 54 53 50 55 57
45 44 40 35 31 32 40 56 64 66 64 67 69 70 71 71 62 64 64 54 55 52 53 62 70 74 67 56 47 48 48 59
49 47 44 49 45 44 46 54 61 63 66 70 68 72 77 74 71 70 69 65 63 65 68 71 73 76 73 67 62 64 67 69